Greer, SC

7:55 AM EST on February 06, 2016 (GMT -0500)
Greenville-Spartanburg International

Weather History for KGSP - April, 2013

Change the Weather History Date:

Wednesday, April 24, 2013

  Actual Average Record
Temperature  
Mean Temperature 63 °F 63 °F  
Max Temperature 75 °F 75 °F 92 °F (1925)
Min Temperature 51 °F 51 °F 31 °F (1986)
Degree Days  
Heating Degree Days 2 4  
Month to date heating degree days 126 152  
Since 1 July heating degree days 2866 2985  
Cooling Degree Days 0 2  
Month to date cooling degree days 35 29  
Year to date cooling degree days 37 37  
Growing Degree Days 13 (Base 50)    
Moisture  
Dew Point 53 °F    
Average Humidity 73    
Maximum Humidity 96    
Minimum Humidity 49    
Precipitation  
Precipitation T in 0.12 in 1.58 in (1964)
Month to date precipitation 2.61 2.70  
Year to date precipitation 15.28 15.01  
Snow  
Snow 0.00 in 0.00 in 0.00 in ()
Month to date snowfall 0.0 0.0  
Since 1 July snowfall 2.0 4.7  
Snow Depth 0.00 in    
Sea Level Pressure  
Sea Level Pressure 30.08 in    
Wind  
Wind Speed 11 mph (SW)    
Max Wind Speed 23 mph    
Max Gust Speed 31 mph    
Visibility 10 miles    
Events Rain    
T = Trace of Precipitation, MM = Missing Value Source: NWS Daily Summary

Daily Weather History Graph

Daily Weather History Graph

Search for Another Location

Airport or City:

Trip Planner

Search our weather history database for the weather conditions in past years. The results will help you decide how hot, cold, wet, or windy it might be!

Date:

Astronomy

Apr. 24, 2013 Rise Set
Actual Time 6:45 AM EDT 8:08 PM EDT
Civil Twilight 6:19 AM EDT 8:35 PM EDT
Nautical Twilight 5:47 AM EDT 9:07 PM EDT
Astronomical Twilight 5:14 AM EDT 9:40 PM EDT
Moon 7:11 PM EDT (4/24) 5:45 AM EDT (4/24)
Length of Visible Light 14h 16m
Length of Day
13h 23m
Waxing Gibbous, 98% of the Moon is Illuminated
Apr 24
Waxing Gibbous
Apr 25
Full
May 2
Last Quarter
May 9
New
May 18
First Quarter

Hourly Weather History & Observations

Time (EDT) Temp. Dew Point Humidity Pressure Visibility Wind Dir Wind Speed Gust Speed Precip Events Conditions
12:53 AM 52.0 °F 48.9 °F 89% 30.11 in 10.0 mi South 4.6 mph - N/A   Clear
1:53 AM 51.1 °F 48.0 °F 89% 30.10 in 10.0 mi South 4.6 mph - N/A   Clear
2:53 AM 52.0 °F 48.9 °F 89% 30.09 in 10.0 mi South 6.9 mph - N/A   Clear
3:53 AM 52.0 °F 50.0 °F 93% 30.09 in 10.0 mi SW 4.6 mph - N/A   Clear
4:53 AM 52.0 °F 50.0 °F 93% 30.09 in 10.0 mi SSW 5.8 mph - N/A   Clear
5:53 AM 51.8 °F 50.0 °F 94% 30.11 in 10.0 mi SSW 6.9 mph - N/A   Clear
6:34 AM 51.8 °F 50.0 °F 94% 30.11 in 10.0 mi SSW 5.8 mph - N/A   Mostly Cloudy
6:53 AM 51.1 °F 50.0 °F 96% 30.10 in 8.0 mi SSW 5.8 mph - N/A   Mostly Cloudy
7:00 AM 51.8 °F 50.0 °F 94% 30.12 in 6.0 mi SSW 6.9 mph - N/A   Mostly Cloudy
7:53 AM 54.0 °F 52.0 °F 93% 30.11 in 9.0 mi SW 9.2 mph - N/A   Overcast
8:53 AM 55.0 °F 53.1 °F 93% 30.12 in 8.0 mi SW 12.7 mph - N/A   Overcast
9:53 AM 57.0 °F 53.1 °F 87% 30.11 in 10.0 mi SW 8.1 mph - N/A   Overcast
10:31 AM 60.8 °F 53.6 °F 77% 30.11 in 10.0 mi WSW 12.7 mph - N/A   Mostly Cloudy
10:53 AM 62.1 °F 54.0 °F 75% 30.10 in 10.0 mi SW 13.8 mph - N/A   Mostly Cloudy
11:27 AM 64.4 °F 55.4 °F 73% 30.11 in 10.0 mi SW 10.4 mph 19.6 mph N/A   Scattered Clouds
11:53 AM 68.0 °F 55.9 °F 65% 30.10 in 10.0 mi WSW 12.7 mph 19.6 mph N/A   Clear
12:53 PM 70.0 °F 55.0 °F 59% 30.09 in 10.0 mi WSW 16.1 mph 25.3 mph N/A   Overcast
1:53 PM 71.1 °F 55.0 °F 57% 30.06 in 10.0 mi SW 19.6 mph 28.8 mph N/A   Partly Cloudy
2:53 PM 73.0 °F 54.0 °F 51% 30.05 in 10.0 mi SW 16.1 mph 24.2 mph N/A   Partly Cloudy
3:53 PM 72.0 °F 54.0 °F 53% 30.03 in 10.0 mi SSW 16.1 mph - N/A   Partly Cloudy
4:53 PM 73.0 °F 54.0 °F 51% 30.01 in 10.0 mi WSW 16.1 mph 25.3 mph N/A   Clear
5:53 PM 72.0 °F 54.0 °F 53% 30.01 in 10.0 mi SW 10.4 mph 20.7 mph N/A   Overcast
6:53 PM 69.1 °F 55.0 °F 61% 30.04 in 10.0 mi West 10.4 mph - 0.00 in Rain Light Rain
7:53 PM 66.0 °F 57.9 °F 75% 30.04 in 10.0 mi WSW 10.4 mph - 0.00 in   Scattered Clouds
8:53 PM 64.0 °F 57.9 °F 80% 30.05 in 10.0 mi SW 11.5 mph - N/A   Mostly Cloudy
9:53 PM 63.0 °F 59.0 °F 87% 30.06 in 10.0 mi SW 13.8 mph - N/A   Mostly Cloudy
10:53 PM 63.0 °F 59.0 °F 87% 30.05 in 10.0 mi SW 10.4 mph - N/A   Clear
11:53 PM 62.1 °F 57.9 °F 86% 30.04 in 10.0 mi SW 9.2 mph - N/A   Partly Cloudy